When you browse on this site, cookies collect data to enhance your experience and personalize the content and advertising you see.
Visit our Privacy Policy to learn more. By continuing to use the site, you agree to this use of cookies and data.
  • In Hungary
  • List of Countries
  • For 7 days
  • Water Temperature
  • Satellite Maps
  • Weather Map
  • News
  • Weather Widgets
  • user-avatar
    Login

    Hourly Weather Alfena

    Today, 16 July, Tuesday

    Time Temperature Precipitation Wind Pressure Humidity
    00:00 +20°C° 0 mm 1 mps 752 mmHg 87%
    01:00 +20°C° 0 mm 1 mps 752 mmHg 87%
    02:00 +18°C° 0 mm 0 mps 751 mmHg 88%
    03:00 +18°C° 0 mm 0 mps 751 mmHg 87%
    04:00 +18°C° 0 mm 0 mps 751 mmHg 86%
    05:00 +18°C° 0 mm 0 mps 751 mmHg 86%
    06:00 +23°C° 0 mm 1 mps 751 mmHg 75%
    07:00 +25°C° 0 mm 1 mps 751 mmHg 65%
    08:00 +27°C° 0 mm 1 mps 751 mmHg 54%
    09:00 +29°C° 0 mm 2 mps 751 mmHg 50%
    10:00 +30°C° 0 mm 2 mps 751 mmHg 46%
    11:00 +31°C° 0 mm 3 mps 751 mmHg 41%
    12:00 +32°C° 0 mm 4 mps 751 mmHg 42%
    13:00 +32°C° 0 mm 4 mps 750 mmHg 42%
    14:00 +32°C° 0 mm 5 mps 750 mmHg 42%
    15:00 +30°C° 0 mm 5 mps 750 mmHg 44%
    16:00 +30°C° 0 mm 5 mps 750 mmHg 45%
    17:00 +29°C° 0 mm 4 mps 750 mmHg 47%
    18:00 +27°C° 0 mm 4 mps 750 mmHg 53%
    19:00 +26°C° 0 mm 3 mps 750 mmHg 59%
    20:00 +24°C° 0 mm 3 mps 751 mmHg 65%
    21:00 +22°C° 0 mm 3 mps 751 mmHg 67%
    22:00 +22°C° 0 mm 3 mps 751 mmHg 69%
    23:00 +21°C° 0 mm 2 mps 751 mmHg 71%

    Tomorrow, 17 July, Wednesday

    Time Temperature Precipitation Wind Pressure Humidity
    00:00 +21°C° 0 mm 2 mps 751 mmHg 73%
    01:00 +20°C° 0 mm 2 mps 751 mmHg 75%
    02:00 +20°C° 0 mm 2 mps 751 mmHg 77%
    03:00 +20°C° 0 mm 2 mps 751 mmHg 78%
    04:00 +19°C° 0 mm 2 mps 751 mmHg 78%
    05:00 +20°C° 0 mm 1 mps 751 mmHg 79%
    06:00 +21°C° 0 mm 2 mps 751 mmHg 71%
    07:00 +25°C° 0 mm 2 mps 751 mmHg 63%
    08:00 +27°C° 0 mm 2 mps 752 mmHg 55%
    09:00 +28°C° 0 mm 3 mps 751 mmHg 52%
    10:00 +29°C° 0 mm 4 mps 751 mmHg 48%
    11:00 +32°C° 0 mm 5 mps 751 mmHg 44%
    12:00 +30°C° 0 mm 6 mps 751 mmHg 45%
    13:00 +30°C° 0 mm 6 mps 751 mmHg 46%
    14:00 +30°C° 0 mm 7 mps 751 mmHg 47%
    15:00 +30°C° 0 mm 6 mps 751 mmHg 48%
    16:00 +29°C° 0 mm 6 mps 751 mmHg 50%
    17:00 +28°C° 0 mm 6 mps 751 mmHg 51%
    18:00 +26°C° 0 mm 5 mps 751 mmHg 57%
    19:00 +25°C° 0 mm 5 mps 752 mmHg 63%
    20:00 +22°C° 0 mm 4 mps 752 mmHg 69%
    21:00 +21°C° 0 mm 4 mps 752 mmHg 72%
    22:00 +21°C° 0 mm 3 mps 752 mmHg 74%
    23:00 +20°C° 0 mm 3 mps 753 mmHg 77%

    Day after tomorrow, 18 July, Thursday

    Time Temperature Precipitation Wind Pressure Humidity
    00:00 +19°C° 0 mm 3 mps 752 mmHg 78%
    01:00 +19°C° 0 mm 3 mps 752 mmHg 79%
    02:00 +18°C° 0 mm 3 mps 752 mmHg 80%
    03:00 +18°C° 0 mm 3 mps 752 mmHg 79%
    04:00 +18°C° 0 mm 3 mps 752 mmHg 78%
    05:00 +18°C° 0 mm 3 mps 752 mmHg 77%
    06:00 +20°C° 0 mm 3 mps 752 mmHg 67%
    07:00 +22°C° 0 mm 3 mps 752 mmHg 57%
    08:00 +26°C° 0 mm 3 mps 753 mmHg 46%
    09:00 +27°C° 0 mm 4 mps 752 mmHg 41%
    10:00 +29°C° 0 mm 5 mps 752 mmHg 35%
    11:00 +32°C° 0 mm 6 mps 752 mmHg 30%
    12:00 +32°C° 0 mm 6 mps 752 mmHg 33%
    13:00 +32°C° 0 mm 7 mps 752 mmHg 35%
    14:00 +32°C° 0 mm 8 mps 751 mmHg 38%
    15:00 +29°C° 0 mm 7 mps 751 mmHg 44%
    16:00 +28°C° 0 mm 7 mps 751 mmHg 50%
    17:00 +27°C° 0 mm 6 mps 751 mmHg 55%
    18:00 +25°C° 0 mm 5 mps 751 mmHg 62%
    19:00 +23°C° 0 mm 4 mps 752 mmHg 69%
    20:00 +21°C° 0 mm 3 mps 752 mmHg 75%
    21:00 +21°C° 0 mm 3 mps 752 mmHg 77%
    22:00 +20°C° 0 mm 3 mps 752 mmHg 78%
    23:00 +20°C° 0 mm 2 mps 752 mmHg 80%

    19 July, Friday

    Time Temperature Precipitation Wind Pressure Humidity
    00:00 +20°C° 0 mm 2 mps 752 mmHg 79%
    01:00 +19°C° 0 mm 2 mps 752 mmHg 79%
    02:00 +19°C° 0 mm 2 mps 751 mmHg 78%
    03:00 +19°C° 0 mm 2 mps 751 mmHg 76%
    04:00 +19°C° 0 mm 2 mps 751 mmHg 73%
    05:00 +19°C° 0 mm 2 mps 751 mmHg 71%
    06:00 +23°C° 0 mm 2 mps 751 mmHg 62%
    07:00 +26°C° 0 mm 2 mps 751 mmHg 53%
    08:00 +29°C° 0 mm 2 mps 751 mmHg 44%
    09:00 +30°C° 0 mm 3 mps 751 mmHg 41%
    10:00 +32°C° 0 mm 4 mps 751 mmHg 39%
    11:00 +33°C° 0 mm 5 mps 751 mmHg 36%
    12:00 +33°C° 0 mm 5 mps 751 mmHg 36%
    13:00 +33°C° 0 mm 6 mps 750 mmHg 36%
    14:00 +33°C° 0 mm 6 mps 750 mmHg 36%
    15:00 +32°C° 0 mm 6 mps 750 mmHg 39%
    16:00 +30°C° 0 mm 6 mps 750 mmHg 42%
    17:00 +29°C° 0 mm 6 mps 750 mmHg 46%
    18:00 +27°C° 0 mm 5 mps 750 mmHg 53%
    19:00 +25°C° 0 mm 5 mps 751 mmHg 60%
    20:00 +22°C° 0 mm 4 mps 751 mmHg 68%
    21:00 +21°C° 0 mm 3 mps 751 mmHg 70%
    22:00 +21°C° 0 mm 3 mps 751 mmHg 72%
    23:00 +20°C° 0 mm 3 mps 751 mmHg 74%

    20 July, Saturday

    Time Temperature Precipitation Wind Pressure Humidity
    00:00 +20°C° 0 mm 2 mps 751 mmHg 75%
    01:00 +20°C° 0 mm 2 mps 751 mmHg 76%
    02:00 +20°C° 0 mm 2 mps 751 mmHg 77%
    03:00 +20°C° 0 mm 2 mps 751 mmHg 76%
    04:00 +20°C° 0 mm 2 mps 751 mmHg 76%
    05:00 +20°C° 0 mm 2 mps 751 mmHg 75%
    06:00 +23°C° 0 mm 2 mps 751 mmHg 64%
    07:00 +26°C° 0 mm 2 mps 751 mmHg 53%
    08:00 +28°C° 0 mm 2 mps 752 mmHg 42%
    09:00 +30°C° 0 mm 3 mps 751 mmHg 38%
    10:00 +33°C° 0 mm 4 mps 751 mmHg 35%
    11:00 +34°C° 0 mm 5 mps 751 mmHg 31%
    12:00 +34°C° 0 mm 6 mps 751 mmHg 33%
    13:00 +34°C° 0 mm 6 mps 751 mmHg 36%
    14:00 +34°C° 0 mm 7 mps 751 mmHg 38%
    15:00 +33°C° 0 mm 7 mps 751 mmHg 42%
    16:00 +30°C° 0 mm 6 mps 751 mmHg 46%
    17:00 +29°C° 0 mm 6 mps 751 mmHg 50%
    18:00 +27°C° 0 mm 5 mps 751 mmHg 58%
    19:00 +25°C° 0 mm 4 mps 752 mmHg 65%
    20:00 +22°C° 0 mm 3 mps 752 mmHg 72%
    21:00 +22°C° 0 mm 3 mps 752 mmHg 74%
    22:00 +23°C° 0 mm 2 mps 752 mmHg 76%
    23:00 +21°C° 0 mm 2 mps 752 mmHg 78%

    21 July, Sunday

    Time Temperature Precipitation Wind Pressure Humidity
    00:00 +21°C° 0 mm 2 mps 752 mmHg 79%
    01:00 +20°C° 0 mm 2 mps 752 mmHg 81%
    02:00 +20°C° 0 mm 2 mps 751 mmHg 83%
    03:00 +20°C° 0 mm 2 mps 752 mmHg 83%
    04:00 +21°C° 0 mm 1 mps 752 mmHg 83%
    05:00 +21°C° 0 mm 1 mps 752 mmHg 83%
    06:00 +23°C° 0 mm 1 mps 752 mmHg 75%
    07:00 +25°C° 0 mm 2 mps 752 mmHg 67%
    08:00 +27°C° 0 mm 2 mps 753 mmHg 58%
    09:00 +28°C° 0 mm 3 mps 753 mmHg 55%
    10:00 +29°C° 0 mm 3 mps 753 mmHg 52%
    11:00 +30°C° 0 mm 4 mps 753 mmHg 49%
    12:00 +30°C° 0 mm 4 mps 753 mmHg 49%
    13:00 +30°C° 0 mm 4 mps 752 mmHg 49%
    14:00 +29°C° 0 mm 5 mps 752 mmHg 49%
    15:00 +28°C° 0 mm 4 mps 752 mmHg 52%
    16:00 +27°C° 0 mm 4 mps 752 mmHg 56%
    17:00 +26°C° 0 mm 4 mps 752 mmHg 60%
    18:00 +23°C° 0 mm 4 mps 753 mmHg 69%
    19:00 +21°C° 0 mm 3 mps 753 mmHg 78%
    20:00 +19°C° 0 mm 3 mps 754 mmHg 88%
    21:00 +19°C° 0 mm 2 mps 754 mmHg 88%
    22:00 +19°C° 0 mm 2 mps 754 mmHg 89%
    23:00 +19°C° 0 mm 2 mps 754 mmHg 90%
    Show more